TimeMST,TemperatureF,Dew PointF,Humidity,Sea Level PressureIn,VisibilityMPH,Wind Direction,Wind SpeedMPH,Gust SpeedMPH,PrecipitationIn,Events,Conditions,WindDirDegrees,DateUTC
12:53 AM,10.0,6.1,84,30.46,10.0,Calm,Calm,-,N/A,,Clear,0,2014-01-27 07:53:00
1:53 AM,10.9,6.1,81,30.46,10.0,Calm,Calm,-,N/A,,Clear,0,2014-01-27 08:53:00
2:53 AM,7.0,3.0,84,30.47,10.0,SW,8.1,-,N/A,,Clear,220,2014-01-27 09:53:00
3:53 AM,8.1,3.9,83,30.48,10.0,SW,8.1,-,N/A,,Clear,220,2014-01-27 10:53:00
4:53 AM,7.0,3.0,84,30.48,10.0,SW,8.1,-,N/A,,Clear,220,2014-01-27 11:53:00
5:53 AM,7.0,3.0,84,30.47,10.0,SW,9.2,-,N/A,,Clear,220,2014-01-27 12:53:00
6:53 AM,7.0,3.0,84,30.46,10.0,SSW,9.2,-,N/A,,Clear,210,2014-01-27 13:53:00
7:53 AM,7.0,1.9,80,30.46,10.0,SW,8.1,-,N/A,,Clear,220,2014-01-27 14:53:00
8:53 AM,12.0,6.1,77,30.46,10.0,SW,8.1,-,N/A,,Clear,220,2014-01-27 15:53:00
9:53 AM,15.1,7.0,70,30.47,10.0,SW,8.1,-,N/A,,Clear,230,2014-01-27 16:53:00
10:53 AM,18.0,9.0,68,30.49,10.0,West,6.9,-,N/A,,Clear,260,2014-01-27 17:53:00
11:53 AM,21.9,9.0,58,30.49,10.0,NW,10.4,-,N/A,,Partly Cloudy,310,2014-01-27 18:53:00
12:53 PM,21.9,3.9,46,30.49,10.0,NW,12.7,-,N/A,,Clear,320,2014-01-27 19:53:00
1:53 PM,23.0,3.0,42,30.48,10.0,NNW,13.8,-,N/A,,Clear,330,2014-01-27 20:53:00
2:53 PM,23.0,1.9,40,30.50,10.0,NNW,10.4,-,N/A,,Clear,330,2014-01-27 21:53:00
3:53 PM,21.9,1.9,42,30.50,10.0,NNW,10.4,-,N/A,,Clear,340,2014-01-27 22:53:00
4:53 PM,19.0,1.0,46,30.52,10.0,NNW,5.8,-,N/A,,Clear,330,2014-01-27 23:53:00
5:53 PM,12.0,1.0,61,30.54,10.0,NNW,4.6,-,N/A,,Clear,340,2014-01-28 00:53:00
6:53 PM,12.0,1.0,61,30.54,10.0,NNW,3.5,-,N/A,,Clear,340,2014-01-28 01:53:00
7:53 PM,10.9,1.0,64,30.55,10.0,WNW,4.6,-,N/A,,Clear,290,2014-01-28 02:53:00
8:53 PM,9.0,1.0,70,30.55,10.0,Calm,Calm,-,N/A,,Clear,0,2014-01-28 03:53:00
9:53 PM,6.1,1.0,80,30.54,10.0,SSW,6.9,-,N/A,,Clear,210,2014-01-28 04:53:00
10:53 PM,6.1,1.0,80,30.53,10.0,SSW,5.8,-,N/A,,Clear,200,2014-01-28 05:53:00
11:53 PM,7.0,-0.0,73,30.50,10.0,SSW,5.8,-,N/A,,Clear,210,2014-01-28 06:53:00